Retour au catalogue

CZ-6A DEB

ActifPO
NORAD 61415·DEBRIS·🇨🇳 China

Lancé Aug 6, 2024 depuis Taiyuan Satellite Launch Center

Loading…

Prochains Passages (prochaines 24 heures)

TLE

FraisSource: Space-Track

Époque: Sep 14, 2026, 07:05 UTC

1 61415U 24140YG  26257.29580214  .00001098  00000-0  61159-3 0  9994
2 61415  88.9827 265.4140 0118361 340.5355  19.1326 14.06886397103253

Suivez CZ-6A DEB en temps réel avec AllMySat

Download on the App Store